| time (UTC) | temp F | wind direction | speed MPH | gust MPH | rain 1hr in | rain 24hr in | rain mn in | humidity % | barometer mb |
| 20260505054050 | 68 | 0 | 0.0 | 0.0 | 0.00 | 0.00 | 0.00 | 30 | 906.5 |
| 20260505053021 | 67 | 0 | 0.0 | 0.0 | 0.00 | 0.00 | 0.00 | 31 | 906.4 |
| 20260505051924 | 67 | 0 | 0.0 | 0.0 | 0.00 | 0.00 | 0.00 | 31 | 906.4 |
| 20260505041530 | 68 | 0 | 0.0 | 0.0 | 0.00 | 0.00 | 0.00 | 31 | 906.4 |
| 20260505040453 | 68 | 0 | 0.0 | 0.0 | 0.00 | 0.00 | 0.00 | 31 | 906.5 |
| 20260505035419 | 67 | 0 | 0.0 | 0.0 | 0.00 | 0.00 | 0.00 | 31 | 906.7 |
| 20260505035417 | 67 | 0 | 0.0 | 0.0 | 0.00 | 0.00 | 0.00 | 31 | 906.6 |
| 20260505034315 | 67 | 0 | 0.0 | 0.0 | 0.00 | 0.00 | 0.00 | 31 | 906.7 |
| 20260505033214 | 68 | 0 | 0.0 | 0.0 | 0.00 | 0.00 | 0.00 | 31 | 906.8 |
| 20260505032149 | 67 | 0 | 0.0 | 0.0 | 0.00 | 0.00 | 0.00 | 31 | 906.8 |
| 20260505031049 | 67 | 0 | 0.0 | 0.0 | 0.00 | 0.00 | 0.00 | 31 | 906.7 |
| 20260505030025 | 67 | 0 | 0.0 | 0.0 | 0.00 | 0.00 | 0.00 | 30 | 906.8 |
| 20260505024957 | 68 | 0 | 0.0 | 0.0 | 0.00 | 0.00 | 0.00 | 31 | 907.1 |
| 20260505023938 | 67 | 0 | 0.0 | 0.0 | 0.00 | 0.00 | 0.00 | 31 | 907.1 |
| 20260505022900 | 67 | 0 | 0.0 | 0.0 | 0.00 | 0.00 | 0.00 | 31 | 907.3 |
| 20260505021903 | 67 | 0 | 0.0 | 0.0 | 0.00 | 0.00 | 0.00 | 31 | 907.3 |
| 20260505020900 | 68 | 0 | 0.0 | 0.0 | 0.00 | 0.00 | 0.00 | 31 | 907.5 |
| 20260505015848 | 67 | 0 | 0.0 | 0.0 | 0.00 | 0.00 | 0.00 | 31 | 907.4 |
| 20260505014803 | 67 | 0 | 0.0 | 0.0 | 0.00 | 0.00 | 0.00 | 31 | 907.5 |
| 20260505013753 | 67 | 0 | 0.0 | 0.0 | 0.00 | 0.00 | 0.00 | 31 | 907.7 |
| 20260505012726 | 68 | 0 | 0.0 | 0.0 | 0.00 | 0.00 | 0.00 | 31 | 907.7 |
| 20260505011715 | 67 | 0 | 0.0 | 0.0 | 0.00 | 0.00 | 0.00 | 31 | 908.0 |
| 20260505010636 | 67 | 0 | 0.0 | 0.0 | 0.00 | 0.00 | 0.00 | 31 | 908.0 |
| 20260505004455 | 68 | 0 | 0.0 | 0.0 | 0.00 | 0.00 | 0.00 | 31 | 908.3 |
| 20260505003343 | 67 | 0 | 0.0 | 0.0 | 0.00 | 0.00 | 0.00 | 31 | 908.4 |
| 20260505002310 | 66 | 0 | 0.0 | 0.0 | 0.00 | 0.00 | 0.00 | 31 | 908.5 |
| 20260505001222 | 68 | 0 | 0.0 | 0.0 | 0.00 | 0.00 | 0.00 | 28 | 908.5 |
| 20260504235020 | 67 | 0 | 0.0 | 0.0 | 0.00 | 0.00 | 0.00 | 31 | 908.6 |
| 20260504233919 | 66 | 0 | 0.0 | 0.0 | 0.00 | 0.00 | 0.00 | 31 | 908.6 |
| 20260504231721 | 67 | 0 | 0.0 | 0.0 | 0.00 | 0.00 | 0.00 | 31 | 908.8 |
| 20260504230711 | 67 | 0 | 0.0 | 0.0 | 0.00 | 0.00 | 0.00 | 31 | 908.9 |
| 20260504225645 | 66 | 0 | 0.0 | 0.0 | 0.00 | 0.00 | 0.00 | 31 | 909.2 |
| 20260504224631 | 68 | 0 | 0.0 | 0.0 | 0.00 | 0.00 | 0.00 | 31 | 909.3 |
| 20260504223609 | 67 | 0 | 0.0 | 0.0 | 0.00 | 0.00 | 0.00 | 31 | 909.3 |
| 20260504223607 | 67 | 0 | 0.0 | 0.0 | 0.00 | 0.00 | 0.00 | 31 | 909.4 |
| 20260504222537 | 67 | 0 | 0.0 | 0.0 | 0.00 | 0.00 | 0.00 | 31 | 909.3 |
| 20260504220441 | 68 | 0 | 0.0 | 0.0 | 0.00 | 0.00 | 0.00 | 31 | 909.5 |
| 20260504215402 | 67 | 0 | 0.0 | 0.0 | 0.00 | 0.00 | 0.00 | 32 | 909.5 |
| 20260504214405 | 67 | 0 | 0.0 | 0.0 | 0.00 | 0.00 | 0.00 | 32 | 909.6 |
| 20260504213352 | 68 | 0 | 0.0 | 0.0 | 0.00 | 0.00 | 0.00 | 31 | 909.5 |
| 20260504212337 | 67 | 0 | 0.0 | 0.0 | 0.00 | 0.00 | 0.00 | 31 | 909.7 |
| 20260504211337 | 67 | 0 | 0.0 | 0.0 | 0.00 | 0.00 | 0.00 | 31 | 909.7 |
| 20260504210325 | 67 | 0 | 0.0 | 0.0 | 0.00 | 0.00 | 0.00 | 30 | 909.7 |
| 20260504205312 | 68 | 0 | 0.0 | 0.0 | 0.00 | 0.00 | 0.00 | 31 | 909.5 |
| 20260504204320 | 67 | 0 | 0.0 | 0.0 | 0.00 | 0.00 | 0.00 | 31 | 909.6 |
| 20260504203247 | 67 | 0 | 0.0 | 0.0 | 0.00 | 0.00 | 0.00 | 31 | 909.5 |
| 20260504202235 | 68 | 0 | 0.0 | 0.0 | 0.00 | 0.00 | 0.00 | 29 | 909.5 |
| 20260504201225 | 68 | 0 | 0.0 | 0.0 | 0.00 | 0.00 | 0.00 | 30 | 909.5 |
| 20260504200200 | 67 | 0 | 0.0 | 0.0 | 0.00 | 0.00 | 0.00 | 31 | 909.5 |
| 20260504200158 | 67 | 0 | 0.0 | 0.0 | 0.00 | 0.00 | 0.00 | 31 | 909.7 |
| 20260504195133 | 67 | 0 | 0.0 | 0.0 | 0.00 | 0.00 | 0.00 | 29 | 909.5 |
| 20260504194108 | 68 | 0 | 0.0 | 0.0 | 0.00 | 0.00 | 0.00 | 30 | 909.4 |
| 20260504193059 | 67 | 0 | 0.0 | 0.0 | 0.00 | 0.00 | 0.00 | 31 | 909.3 |
| 20260504192031 | 67 | 0 | 0.0 | 0.0 | 0.00 | 0.00 | 0.00 | 30 | 909.3 |
| 20260504190021 | 67 | 0 | 0.0 | 0.0 | 0.00 | 0.00 | 0.00 | 31 | 909.3 |
| 20260504184957 | 67 | 0 | 0.0 | 0.0 | 0.00 | 0.00 | 0.00 | 30 | 909.2 |
| 20260504183947 | 68 | 0 | 0.0 | 0.0 | 0.00 | 0.00 | 0.00 | 30 | 909.3 |
| 20260504182948 | 67 | 0 | 0.0 | 0.0 | 0.00 | 0.00 | 0.00 | 30 | 909.4 |
| 20260504182946 | 67 | 0 | 0.0 | 0.0 | 0.00 | 0.00 | 0.00 | 30 | 909.5 |
| 20260504181944 | 67 | 0 | 0.0 | 0.0 | 0.00 | 0.00 | 0.00 | 30 | 909.5 |
| 20260504180944 | 68 | 0 | 0.0 | 0.0 | 0.00 | 0.00 | 0.00 | 29 | 909.7 |
| 20260504175856 | 67 | 0 | 0.0 | 0.0 | 0.00 | 0.00 | 0.00 | 30 | 909.6 |
| 20260504175854 | 67 | 0 | 0.0 | 0.0 | 0.00 | 0.00 | 0.00 | 30 | 909.7 |
| 20260504174829 | 67 | 0 | 0.0 | 0.0 | 0.00 | 0.00 | 0.00 | 30 | 909.7 |
| 20260504172738 | 67 | 0 | 0.0 | 0.0 | 0.00 | 0.00 | 0.00 | 30 | 909.5 |
| 20260504171739 | 66 | 0 | 0.0 | 0.0 | 0.00 | 0.00 | 0.00 | 31 | 909.6 |
| 20260504170704 | 67 | 0 | 0.0 | 0.0 | 0.00 | 0.00 | 0.00 | 29 | 909.5 |
| 20260504160433 | 67 | 0 | 0.0 | 0.0 | 0.00 | 0.00 | 0.00 | 30 | 909.4 |
| 20260504150413 | 67 | 0 | 0.0 | 0.0 | 0.00 | 0.00 | 0.00 | 30 | 909.3 |
| 20260504140336 | 67 | 0 | 0.0 | 0.0 | 0.00 | 0.00 | 0.00 | 30 | 909.3 |
| 20260504130234 | 67 | 0 | 0.0 | 0.0 | 0.00 | 0.00 | 0.00 | 30 | 909.7 |
| 20260504100449 | 68 | 0 | 0.0 | 0.0 | 0.00 | 0.00 | 0.00 | 29 | 910.8 |
| 20260504081940 | 67 | 0 | 0.0 | 0.0 | 0.00 | 0.00 | 0.00 | 30 | 911.2 |
| 20260504080844 | 68 | 0 | 0.0 | 0.0 | 0.00 | 0.00 | 0.00 | 29 | 911.3 |